• In Hungary
  • List of Countries
  • For 7 days
  • Water Temperature
  • Satellite Maps
  • Weather Map
  • News
  • Weather Widgets
  • user-avatar
    Login

    Hourly Weather Guzow

    Today, 19 October, Friday

    Time Temperature Precipitation Wind Pressure Humidity
    00:00 +14°C° 0 mm 1 mps 755 mmHg 67%
    01:00 +13°C° 0 mm 2 mps 756 mmHg 72%
    02:00 +13°C° 0 mm 2 mps 756 mmHg 74%
    03:00 +12°C° 0 mm 2 mps 756 mmHg 76%
    04:00 +12°C° 0 mm 2 mps 756 mmHg 79%
    05:00 +12°C° 0 mm 2 mps 756 mmHg 80%
    06:00 +10°C° 0 mm 2 mps 756 mmHg 82%
    07:00 +10°C° 0 mm 2 mps 757 mmHg 84%
    08:00 +13°C° 0 mm 2 mps 757 mmHg 78%
    09:00 +14°C° 0 mm 2 mps 757 mmHg 72%
    10:00 +16°C° 0 mm 2 mps 757 mmHg 66%
    11:00 +17°C° 0 mm 3 mps 757 mmHg 63%
    12:00 +18°C° 0 mm 3 mps 757 mmHg 60%
    13:00 +18°C° 0 mm 3 mps 757 mmHg 58%
    14:00 +18°C° 0 mm 3 mps 757 mmHg 61%
    15:00 +17°C° 0 mm 3 mps 757 mmHg 64%
    16:00 +17°C° 0 mm 2 mps 757 mmHg 67%
    17:00 +15°C° 0 mm 2 mps 757 mmHg 70%
    18:00 +14°C° 0 mm 2 mps 757 mmHg 73%
    19:00 +13°C° 0 mm 2 mps 758 mmHg 76%
    20:00 +12°C° 0 mm 2 mps 758 mmHg 76%
    21:00 +12°C° 0 mm 2 mps 758 mmHg 77%
    22:00 +10°C° 0 mm 2 mps 759 mmHg 77%
    23:00 +10°C° 0 mm 2 mps 759 mmHg 78%

    Tomorrow, 20 October, Saturday

    Time Temperature Precipitation Wind Pressure Humidity
    00:00 +9°C° 0 mm 2 mps 759 mmHg 79%
    01:00 +10°C° 0 mm 1 mps 759 mmHg 80%
    02:00 +9°C° 0 mm 1 mps 759 mmHg 80%
    03:00 +9°C° 0 mm 1 mps 759 mmHg 81%
    04:00 +9°C° 0 mm 1 mps 759 mmHg 82%
    05:00 +9°C° 0 mm 1 mps 759 mmHg 80%
    06:00 +9°C° 0 mm 1 mps 759 mmHg 79%
    07:00 +9°C° 0 mm 1 mps 760 mmHg 78%
    08:00 +10°C° 0 mm 1 mps 760 mmHg 71%
    09:00 +12°C° 0 mm 1 mps 760 mmHg 63%
    10:00 +13°C° 0 mm 2 mps 760 mmHg 55%
    11:00 +14°C° 0 mm 2 mps 760 mmHg 55%
    12:00 +13°C° 0 mm 3 mps 760 mmHg 55%
    13:00 +14°C° 0 mm 3 mps 760 mmHg 54%
    14:00 +13°C° 0 mm 3 mps 759 mmHg 56%
    15:00 +13°C° 0 mm 3 mps 759 mmHg 59%
    16:00 +12°C° 0 mm 3 mps 759 mmHg 61%
    17:00 +12°C° 0 mm 3 mps 759 mmHg 61%
    18:00 +12°C° 0 mm 4 mps 760 mmHg 61%
    19:00 +11°C° 0 mm 4 mps 760 mmHg 61%
    20:00 +11°C° 0 mm 4 mps 760 mmHg 61%
    21:00 +10°C° 0 mm 4 mps 760 mmHg 61%
    22:00 +10°C° 0 mm 4 mps 760 mmHg 62%
    23:00 +10°C° 0 mm 4 mps 760 mmHg 65%

    Day after tomorrow, 21 October, Sunday

    Time Temperature Precipitation Wind Pressure Humidity
    00:00 +8°C° 0 mm 4 mps 759 mmHg 68%
    01:00 +8°C° 0 mm 4 mps 759 mmHg 72%
    02:00 +7°C° 0 mm 4 mps 759 mmHg 76%
    03:00 +7°C° 0 mm 4 mps 759 mmHg 81%
    04:00 +6°C° 0 mm 4 mps 759 mmHg 85%
    05:00 +6°C° 0 mm 4 mps 759 mmHg 88%
    06:00 +7°C° 0 mm 3 mps 759 mmHg 91%
    07:00 +5°C° 0 mm 3 mps 759 mmHg 93%
    08:00 +8°C° 0 mm 3 mps 759 mmHg 86%
    09:00 +8°C° 0 mm 4 mps 759 mmHg 79%
    10:00 +11°C° 0 mm 4 mps 759 mmHg 72%
    11:00 +11°C° 0 mm 3 mps 759 mmHg 68%
    12:00 +12°C° 0 mm 3 mps 759 mmHg 64%
    13:00 +13°C° 0 mm 3 mps 759 mmHg 60%
    14:00 +12°C° 0 mm 3 mps 759 mmHg 61%
    15:00 +12°C° 0 mm 3 mps 759 mmHg 62%
    16:00 +13°C° 0 mm 2 mps 759 mmHg 63%
    17:00 +12°C° 0 mm 2 mps 759 mmHg 67%
    18:00 +10°C° 0 mm 2 mps 759 mmHg 71%
    19:00 +9°C° 0 mm 2 mps 759 mmHg 75%
    20:00 +9°C° 0 mm 2 mps 759 mmHg 79%
    21:00 +8°C° 0 mm 2 mps 759 mmHg 82%
    22:00 +8°C° 0 mm 1 mps 760 mmHg 86%
    23:00 +8°C° 0 mm 1 mps 760 mmHg 87%

    22 October, Monday

    Time Temperature Precipitation Wind Pressure Humidity
    00:00 +7°C° 0 mm 1 mps 760 mmHg 88%
    01:00 +7°C° 0 mm 1 mps 760 mmHg 90%
    02:00 +7°C° 0 mm 1 mps 760 mmHg 90%
    03:00 +7°C° 0 mm 1 mps 759 mmHg 91%
    04:00 +6°C° 0 mm 1 mps 759 mmHg 91%
    05:00 +6°C° 0 mm 1 mps 759 mmHg 91%
    06:00 +6°C° 0 mm 1 mps 759 mmHg 91%
    07:00 +6°C° 0 mm 1 mps 760 mmHg 91%
    08:00 +7°C° 0 mm 2 mps 759 mmHg 83%
    09:00 +9°C° 0 mm 2 mps 759 mmHg 74%
    10:00 +12°C° 0 mm 2 mps 759 mmHg 65%
    11:00 +13°C° 0 mm 2 mps 759 mmHg 61%
    12:00 +12°C° 0 mm 3 mps 758 mmHg 56%
    13:00 +13°C° 0 mm 3 mps 758 mmHg 52%
    14:00 +13°C° 0 mm 3 mps 757 mmHg 55%
    15:00 +13°C° 0 mm 2 mps 757 mmHg 58%
    16:00 +12°C° 0 mm 2 mps 757 mmHg 61%
    17:00 +10°C° 0.2 mm 2 mps 757 mmHg 66%
    18:00 +10°C° 0.2 mm 3 mps 756 mmHg 71%
    19:00 +9°C° 0.2 mm 3 mps 756 mmHg 76%
    20:00 +9°C° 0.8 mm 3 mps 756 mmHg 79%
    21:00 +7°C° 0.8 mm 4 mps 756 mmHg 82%
    22:00 +7°C° 0.8 mm 4 mps 756 mmHg 86%
    23:00 +7°C° 0.8 mm 4 mps 756 mmHg 84%

    23 October, Tuesday

    Time Temperature Precipitation Wind Pressure Humidity
    00:00 +7°C° 0.8 mm 4 mps 756 mmHg 83%
    01:00 +7°C° 0.8 mm 4 mps 756 mmHg 81%
    02:00 +6°C° 0.2 mm 4 mps 756 mmHg 81%
    03:00 +6°C° 0.2 mm 4 mps 756 mmHg 80%
    04:00 +6°C° 0.2 mm 4 mps 756 mmHg 80%
    05:00 +6°C° 0 mm 4 mps 756 mmHg 80%
    06:00 +5°C° 0 mm 4 mps 756 mmHg 81%
    07:00 +5°C° 0 mm 4 mps 756 mmHg 82%
    08:00 +6°C° 0 mm 4 mps 756 mmHg 77%
    09:00 +7°C° 0 mm 4 mps 756 mmHg 71%
    10:00 +8°C° 0 mm 4 mps 756 mmHg 66%
    11:00 +8°C° 0 mm 5 mps 755 mmHg 62%
    12:00 +9°C° 0 mm 5 mps 755 mmHg 59%
    13:00 +10°C° 0 mm 6 mps 754 mmHg 55%
    14:00 +9°C° 0 mm 6 mps 753 mmHg 58%
    15:00 +9°C° 0 mm 5 mps 753 mmHg 61%
    16:00 +8°C° 0 mm 5 mps 752 mmHg 64%
    17:00 +8°C° 0.1 mm 6 mps 752 mmHg 68%
    18:00 +7°C° 0.1 mm 6 mps 752 mmHg 72%
    19:00 +7°C° 0.1 mm 6 mps 751 mmHg 76%
    20:00 +7°C° 0.1 mm 6 mps 751 mmHg 77%
    21:00 +7°C° 0.1 mm 6 mps 751 mmHg 78%
    22:00 +7°C° 0.1 mm 6 mps 750 mmHg 79%
    23:00 +7°C° 0.1 mm 6 mps 750 mmHg 81%

    24 October, Wednesday

    Time Temperature Precipitation Wind Pressure Humidity
    00:00 +7°C° 0.1 mm 6 mps 749 mmHg 82%
    01:00 +7°C° 0.1 mm 6 mps 748 mmHg 83%
    02:00 +6°C° 0.6 mm 7 mps 747 mmHg 84%
    03:00 +8°C° 0.6 mm 7 mps 746 mmHg 85%
    04:00 +7°C° 0.6 mm 8 mps 745 mmHg 86%
    05:00 +7°C° 1.2 mm 9 mps 744 mmHg 85%
    06:00 +8°C° 1.2 mm 10 mps 742 mmHg 85%
    07:00 +8°C° 1.2 mm 10 mps 741 mmHg 85%
    08:00 +9°C° 0.7 mm 10 mps 740 mmHg 84%
    09:00 +9°C° 0.7 mm 10 mps 739 mmHg 83%
    10:00 +11°C° 0.7 mm 10 mps 739 mmHg 83%
    11:00 +11°C° 0.8 mm 10 mps 738 mmHg 79%
    12:00 +11°C° 0.8 mm 11 mps 738 mmHg 74%
    13:00 +11°C° 0.8 mm 11 mps 738 mmHg 70%
    14:00 +11°C° 0.3 mm 11 mps 738 mmHg 66%
    15:00 +9°C° 0.3 mm 10 mps 739 mmHg 61%
    16:00 +9°C° 0.3 mm 10 mps 740 mmHg 57%
    17:00 +8°C° 0 mm 10 mps 740 mmHg 58%
    18:00 +7°C° 0 mm 10 mps 741 mmHg 59%
    19:00 +6°C° 0 mm 10 mps 742 mmHg 60%
    20:00 +6°C° 0.1 mm 10 mps 743 mmHg 63%
    21:00 +6°C° 0.1 mm 9 mps 744 mmHg 65%
    22:00 +5°C° 0.1 mm 9 mps 745 mmHg 68%
    23:00 +5°C° 0.1 mm 8 mps 746 mmHg 69%
    Show more